Regional Weather Roundup
Issued by NWS

Home | Current Version | Previous Version | Graphics & Text | Print | Product List | Glossary On
Versions: 1 2 3 4 5 6 7 8 9 10 11 12 13 14 15 16 17 18 19 20 21 22 23 24 25 26 27 28 29 30 31 32 33 34 35 36 37 38 39 40 41 42 43 44 45 46 47 48 49 50
000
ASUS44 KMEG 241700
RWRTN
TENNESSEE HOURLY STATE WEATHER ROUNDUP
NATIONAL WEATHER SERVICE MEMPHIS TN
1100 AM CST SAT JAN 24 2015

TNZ002-004-019-021-049-052-054-088>092-241800-
WEST TENNESSEE

CITY           SKY/WX    TMP DP  RH WIND       PRES   REMARKS
MEMPHIS INTL   SUNNY     47  32  56 W9        30.04S
NWS MEMPHIS      N/A     45 N/A N/A MISG        N/A
JACKSON        SUNNY     44  33  65 SW12G18   30.01S
DYERSBURG      SUNNY     45  23  42 W9        30.00F
UNION CITY     SUNNY     39  34  81 SW9       29.95F WCI  33
PARIS          SUNNY     36  30  80 SW9       29.95F WCI  29
LEXINGTON      SUNNY     39  36  87 SW8       29.98F WCI  34
SAVANNAH       MOSUNNY   37  37 100 SW7       30.02F WCI  32
$$

TNZ008-025-027-028-033-062-065-066-241800-
NORTH MIDDLE TENNESSEE

CITY           SKY/WX    TMP DP  RH WIND       PRES   REMARKS
NASHVILLE      SUNNY     39  32  76 SW6       29.97S WCI  35
CLARKSVILLE    SUNNY     39  32  76 SW10      29.93F WCI  32
COOKEVILLE     MOSUNNY   34  28  80 W8        29.93S WCI  27
CROSSVILLE     SUNNY     32  25  75 W10       29.89S WCI  24
$$

TNZ061-075-076-078-094-096-097-241800-
SOUTH MIDDLE TENNESSEE

CITY           SKY/WX    TMP DP  RH WIND       PRES   REMARKS
FAYETTEVILLE   MOSUNNY   36  28  75 MISG      29.98S
TULLAHOMA      MOSUNNY   34  28  80 W12       29.97S WCI  25
WINCHESTER     MOSUNNY   36  28  75 W8        29.98S WCI  29
SHELBYVILLE    PTSUNNY   36  34  93 W8        29.99S WCI  29
$$

TNZ017-018-042-046-047-241800-
NORTHEAST TENNESSEE

CITY           SKY/WX    TMP DP  RH WIND       PRES   REMARKS
TRI CITIES     CLOUDY    34  31  88 W9        29.78F WCI  27
ELIZABETHTON   CLOUDY    30  28  93 W8        29.76F WCI  23
$$

TNZ012-013-036-069-073-074-241800-
CENTRAL EAST TENNESSEE

CITY           SKY/WX    TMP DP  RH WIND       PRES   REMARKS
KNOXVILLE      MOSUNNY   37  28  70 W12G17    29.90R WCI  29
OAK RIDGE      MOSUNNY   40  29  64 VRB5      29.90S
GATLINBURG     CLOUDY    34  28  80 W12       29.88R WCI  25
$$

TNZ083-085-099-241800-
SOUTHEAST TENNESSEE

CITY           SKY/WX    TMP DP  RH WIND       PRES   REMARKS
CHATTANOOGA    MOSUNNY   41  26  55 NW8       29.95F
$$

SKY/WX REPORTED AS FAIR MEANS FEW OR NO CLOUDS BELOW
12 THOUSAND FEET.



USA.gov is the U.S. government's official web portal to all federal, state and local government web resources and services.